period_start,C,m1,H,J0,J1,J2,J3,J4,J5,JA,JB,JC,JD,JJ,JK,JN,#
2017-03-22 00:04:02,0.22,7.07,0.00,24.41,27.46,30.80,14.44,50.45,1017.59,2025.82,1629.61,1742.55,1979.35,599.90,593.84,18.01,0000 0000 0000 0000 000000
2017-03-22 00:09:04,0.21,7.08,0.00,24.35,27.45,30.97,14.52,50.67,1017.59,2025.79,1627.87,1741.38,1977.88,600.15,594.11,18.06,0000 0000 0000 0000 000000
2017-03-22 00:14:05,0.17,7.09,0.00,24.34,27.45,31.01,14.48,50.54,1017.60,2025.71,1626.25,1740.21,1976.61,599.89,593.87,18.11,0000 0000 0000 0000 000000
2017-03-22 00:19:07,0.20,7.10,0.00,24.31,27.45,30.91,14.50,50.47,1017.61,2025.72,1624.69,1739.07,1975.37,599.83,593.84,18.16,0000 0000 0000 0000 000000
2017-03-22 00:24:07,0.16,7.11,0.00,24.49,27.44,30.84,14.45,50.52,1017.60,2025.80,1623.36,1738.09,1974.20,599.82,593.44,18.21,0000 0000 0000 0000 000000
2017-03-22 00:29:09,0.16,7.12,0.00,24.64,27.43,30.76,14.45,50.54,1017.59,2025.75,1622.06,1737.13,1973.11,599.95,593.26,18.27,0000 0000 0000 0000 000000
2017-03-22 00:34:10,0.15,7.13,0.00,24.43,27.43,30.73,14.42,50.73,1017.59,2025.74,1620.72,1736.28,1972.08,599.73,593.46,18.32,0000 0000 0000 0000 000000
2017-03-22 00:39:12,0.16,7.13,0.00,24.56,27.44,30.76,14.44,50.52,1017.60,2025.53,1619.61,1735.37,1971.05,599.66,593.15,18.37,0000 0000 0000 0000 000000
2017-03-22 00:44:13,0.11,7.14,0.00,24.54,27.45,30.77,14.47,50.68,1017.59,2025.49,1618.44,1734.65,1970.12,599.95,593.55,18.42,0000 0000 0000 0000 000000
2017-03-22 00:49:14,0.12,7.15,0.00,24.41,27.44,30.84,14.47,50.69,1017.59,2025.38,1617.27,1733.86,1969.17,600.00,593.81,18.47,0000 0000 0000 0000 000000
2017-03-22 00:54:15,0.18,7.15,0.00,24.36,27.42,30.91,14.47,50.87,1017.59,2025.58,1615.97,1733.05,1968.28,599.65,593.54,18.52,0000 0000 0000 0000 000000
2017-03-22 00:59:16,0.16,7.16,0.00,24.34,27.42,30.91,14.46,50.77,1017.59,2025.67,1614.60,1732.25,1967.41,599.86,593.72,18.57,0000 0000 0000 0000 000000
2017-03-22 01:04:18,0.15,7.17,0.00,24.35,27.42,30.85,14.42,50.86,1017.58,2025.54,1613.31,1731.43,1966.32,599.75,593.65,18.62,0000 0000 0000 0000 000000
2017-03-22 01:09:19,0.21,7.18,0.00,24.42,27.42,30.86,14.54,50.81,1017.31,2025.76,1611.87,1730.60,1965.30,600.33,593.91,18.67,0000 0000 0000 0000 000000
2017-03-22 01:14:20,0.18,7.19,0.00,24.73,27.42,30.78,14.41,50.73,1017.11,2025.87,1610.23,1729.58,1964.09,600.04,593.08,18.72,0000 0000 0000 0000 000000
2017-03-22 01:19:22,0.22,7.20,0.00,24.43,27.42,30.73,14.46,50.81,1017.07,2025.81,1608.47,1728.49,1962.72,599.93,593.40,18.77,0000 0000 0000 0000 000000
2017-03-22 01:24:23,0.19,7.21,0.00,24.47,27.45,30.71,14.40,50.86,1016.85,2025.74,1606.83,1727.26,1961.25,600.01,593.25,18.82,0000 0000 0000 0000 000000
2017-03-22 01:29:24,0.26,7.22,0.00,24.53,27.46,30.77,14.42,50.90,1016.92,2025.56,1605.22,1725.50,1959.34,599.70,592.87,18.87,0000 0000 0000 0000 000000
2017-03-22 01:34:25,0.28,7.24,0.00,24.39,27.47,30.84,14.41,50.92,1016.96,2025.26,1603.13,1723.43,1956.97,599.72,593.17,18.92,0000 0000 0000 0000 000000
2017-03-22 01:39:26,0.20,7.25,0.00,24.34,27.47,30.95,14.48,50.81,1017.03,2025.14,1601.49,1722.16,1955.42,600.02,593.62,18.97,0000 0000 0000 0000 000000
2017-03-22 01:44:28,0.14,7.26,0.00,24.28,27.47,30.99,14.56,50.85,1017.10,2025.08,1600.36,1721.18,1954.34,600.23,593.99,19.02,0000 0000 0000 0000 000000
2017-03-22 01:49:29,0.15,7.26,0.00,24.27,27.46,30.94,14.43,50.98,1017.29,2025.08,1599.30,1720.34,1953.40,599.73,593.56,19.07,0000 0000 0000 0000 000000
2017-03-22 01:54:30,0.12,7.27,0.00,24.27,27.45,30.91,14.52,51.19,1017.59,2025.11,1598.51,1719.73,1952.54,600.37,594.42,19.12,0000 0000 0000 0000 000000
2017-03-22 01:59:32,0.10,7.28,0.00,24.42,27.45,30.87,14.50,51.00,1017.68,2025.14,1597.58,1718.95,1951.75,600.41,594.26,19.17,0000 0000 0000 0000 000000
2017-03-22 02:04:33,0.14,7.28,0.00,24.69,27.46,30.81,14.50,50.91,1018.01,2025.09,1596.64,1718.08,1950.76,600.20,593.77,19.22,0000 0000 0000 0000 000000
2017-03-22 02:09:34,0.14,7.29,0.00,24.42,27.47,30.74,14.41,50.86,1018.25,2025.04,1595.53,1717.22,1949.83,599.97,594.11,19.27,0000 0000 0000 0000 000000
2017-03-22 02:14:36,0.14,7.30,0.00,24.53,27.47,30.75,14.48,50.68,1018.57,2025.02,1594.47,1716.46,1948.91,599.81,593.95,19.32,0000 0000 0000 0000 000000
2017-03-22 02:19:37,0.08,7.30,0.00,24.62,27.47,30.78,14.49,50.52,1018.58,2025.01,1593.64,1715.94,1948.06,600.30,594.21,19.37,0000 0000 0000 0000 000000
2017-03-22 02:24:38,0.12,7.31,0.00,24.71,27.48,30.80,14.50,50.50,1018.61,2025.01,1592.83,1715.13,1947.37,599.75,593.58,19.42,0000 0000 0000 0000 000000
2017-03-22 02:29:40,0.10,7.31,0.00,24.71,27.49,30.77,14.43,50.45,1018.65,2025.00,1592.03,1714.65,1946.74,600.34,594.15,19.47,0000 0000 0000 0000 000000
2017-03-22 02:34:41,0.09,7.32,0.00,24.74,27.50,30.74,14.39,50.50,1018.64,2025.00,1591.17,1714.02,1946.02,599.88,593.63,19.52,0000 0000 0000 0000 000000
2017-03-22 02:39:43,0.13,7.33,0.00,24.73,27.49,30.72,14.43,50.54,1018.61,2025.00,1590.37,1713.49,1945.32,599.85,593.45,19.57,0000 0000 0000 0000 000000
2017-03-22 02:44:44,0.08,7.33,0.00,24.64,27.49,30.73,14.53,50.69,1018.59,2025.00,1589.52,1712.98,1944.75,599.88,593.74,19.62,0000 0000 0000 0000 000000
2017-03-22 02:49:45,0.11,7.34,0.00,24.55,27.47,30.77,14.55,50.66,1018.85,2025.00,1588.75,1712.23,1944.03,600.20,594.45,19.67,0000 0000 0000 0000 000000
2017-03-22 02:54:46,0.07,7.34,0.00,24.64,27.47,30.78,14.46,50.73,1019.01,2025.00,1587.88,1711.96,1943.38,599.96,594.13,19.72,0000 0000 0000 0000 000000
2017-03-22 02:59:47,0.12,7.35,0.00,24.81,27.47,30.73,14.43,50.67,1019.06,2025.00,1587.01,1711.19,1942.76,600.07,593.92,19.77,0000 0000 0000 0000 000000
2017-03-22 03:04:48,0.11,7.35,0.00,24.64,27.47,30.68,14.47,50.46,1019.27,2025.00,1586.01,1710.75,1941.97,600.06,594.28,19.82,0000 0000 0000 0000 000000
2017-03-22 03:09:49,0.12,7.36,0.00,24.69,27.47,30.70,14.42,50.52,1019.48,2025.00,1584.94,1709.99,1941.10,599.92,594.19,19.87,0000 0000 0000 0000 000000
2017-03-22 03:14:51,0.15,7.37,0.00,24.77,27.47,30.70,14.44,50.59,1019.50,2024.99,1583.96,1709.14,1940.17,599.58,593.77,19.92,0000 0000 0000 0000 000000
2017-03-22 03:19:52,0.14,7.37,0.00,24.73,27.47,30.72,14.44,50.77,1019.31,2024.99,1582.96,1708.54,1939.40,599.63,593.78,19.97,0000 0000 0000 0000 000000
2017-03-22 03:24:53,0.10,7.38,0.00,24.81,27.47,30.73,14.48,50.73,1019.07,2024.99,1581.97,1707.94,1938.60,600.17,593.96,20.02,0000 0000 0000 0000 000000
2017-03-22 03:29:55,0.14,7.39,0.00,24.78,27.47,30.70,14.43,50.76,1019.06,2024.99,1580.97,1707.11,1937.83,599.99,593.91,20.07,0000 0000 0000 0000 000000
2017-03-22 03:34:56,0.14,7.39,0.00,24.76,27.47,30.68,14.42,50.77,1019.06,2024.99,1579.97,1706.43,1937.02,600.10,594.01,20.12,0000 0000 0000 0000 000000
2017-03-22 03:39:57,0.10,7.40,0.00,24.84,27.47,30.70,14.47,50.76,1019.06,2024.99,1579.07,1705.91,1936.18,600.63,594.31,20.17,0000 0000 0000 0000 000000
2017-03-22 03:44:58,0.13,7.41,0.00,24.85,27.47,30.68,14.47,50.70,1019.08,2024.99,1578.21,1705.13,1935.51,599.99,593.70,20.22,0000 0000 0000 0000 000000
2017-03-22 03:49:59,0.08,7.41,0.00,24.84,27.47,30.67,14.45,50.48,1019.24,2024.99,1577.30,1704.82,1934.91,600.43,594.34,20.27,0000 0000 0000 0000 000000
2017-03-22 03:55:01,0.12,7.42,0.00,24.89,27.47,30.67,14.46,50.47,1019.47,2024.99,1576.60,1704.06,1934.09,600.24,594.15,20.32,0000 0000 0000 0000 000000
2017-03-22 04:00:02,0.10,7.42,0.00,24.90,27.47,30.64,14.36,50.42,1019.53,2024.99,1575.88,1703.64,1933.52,599.48,593.40,20.37,0000 0000 0000 0000 000000
2017-03-22 04:05:03,0.07,7.43,0.00,24.88,27.47,30.61,14.46,50.45,1019.54,2024.99,1575.05,1703.01,1932.90,600.15,594.08,20.42,0000 0000 0000 0000 000000
2017-03-22 04:10:04,0.14,7.43,0.00,24.92,27.47,30.60,14.47,50.51,1019.53,2024.99,1574.18,1702.41,1932.06,600.03,593.88,20.47,0000 0000 0000 0000 000000
2017-03-22 04:15:06,0.09,7.44,0.00,24.94,27.47,30.61,14.35,50.57,1019.55,2024.99,1573.32,1701.99,1931.51,599.78,593.80,20.52,0000 0000 0000 0000 000000
2017-03-22 04:20:07,0.13,7.44,0.00,24.91,27.45,30.58,14.46,50.57,1019.55,2024.99,1572.39,1701.21,1930.84,600.53,594.39,20.57,0000 0000 0000 0000 000000
2017-03-22 04:25:08,0.08,7.45,0.00,24.93,27.45,30.57,14.42,50.57,1019.56,2024.99,1571.62,1700.85,1930.05,600.25,594.15,20.62,0000 0000 0000 0000 000000
2017-03-22 04:30:09,0.10,7.45,0.00,24.91,27.45,30.56,14.44,50.57,1019.64,2024.99,1570.91,1700.08,1929.48,599.67,593.60,20.67,0000 0000 0000 0000 000000
2017-03-22 04:35:11,0.06,7.46,0.00,24.91,27.45,30.55,14.36,50.38,1019.97,2024.99,1570.07,1699.98,1929.00,599.97,594.13,20.72,0000 0000 0000 0000 000000
2017-03-22 04:40:12,0.09,7.46,0.00,24.90,27.45,30.56,14.45,50.40,1020.03,2024.99,1569.67,1699.63,1928.67,600.18,594.49,20.77,0000 0000 0000 0000 000000
2017-03-22 04:45:13,0.06,7.47,0.00,24.92,27.44,30.56,14.40,50.44,1020.03,2024.99,1569.02,1699.03,1928.03,599.91,594.07,20.82,0000 0000 0000 0000 000000
2017-03-22 04:50:14,0.05,7.47,0.00,24.92,27.42,30.56,14.42,50.56,1020.04,2024.99,1568.52,1698.98,1927.85,599.85,594.11,20.87,0000 0000 0000 0000 000000
2017-03-22 04:55:15,0.08,7.47,0.00,24.92,27.42,30.54,14.47,50.41,1020.07,2024.99,1568.02,1698.53,1927.09,599.92,594.03,20.92,0000 0000 0000 0000 000000
2017-03-22 05:00:17,0.06,7.47,0.00,24.93,27.42,30.55,14.44,50.39,1020.14,2024.99,1567.52,1698.06,1926.99,600.39,594.58,20.97,0000 0000 0000 0000 000000
2017-03-22 05:05:18,0.04,7.48,0.00,24.92,27.41,30.54,14.43,50.53,1020.09,2024.99,1567.00,1697.99,1926.46,599.97,594.16,21.02,0000 0000 0000 0000 000000
2017-03-22 05:10:19,0.09,7.48,0.00,24.90,27.40,30.52,14.46,50.46,1020.12,2024.99,1566.36,1697.63,1926.00,600.34,594.61,21.07,0000 0000 0000 0000 000000
2017-03-22 05:15:20,0.04,7.49,0.00,24.93,27.40,30.55,14.47,50.52,1020.18,2024.99,1566.00,1697.04,1925.81,600.24,594.40,21.12,0000 0000 0000 0000 000000
2017-03-22 05:20:22,0.06,7.49,0.00,24.98,27.40,30.55,14.50,50.68,1020.21,2024.99,1565.57,1696.98,1925.08,600.39,594.55,21.17,0000 0000 0000 0000 000000
2017-03-22 05:25:23,0.10,7.49,0.00,24.96,27.40,30.53,14.48,50.73,1020.25,2024.99,1564.85,1696.29,1924.54,600.33,594.56,21.22,0000 0000 0000 0000 000000
2017-03-22 05:30:24,0.06,7.50,0.00,24.94,27.40,30.55,14.41,50.69,1020.20,2024.99,1564.07,1695.99,1923.99,600.04,594.42,21.27,0000 0000 0000 0000 000000
2017-03-22 05:35:25,0.10,7.50,0.00,24.94,27.39,30.55,14.44,50.85,1020.34,2024.99,1563.75,1695.39,1923.41,600.10,594.42,21.32,0000 0000 0000 0000 000000
2017-03-22 05:40:26,0.04,7.51,0.00,24.92,27.38,30.54,14.53,50.74,1020.50,2024.99,1563.03,1695.01,1923.00,600.00,594.52,21.37,0000 0000 0000 0000 000000
2017-03-22 05:45:28,0.06,7.51,0.00,24.91,27.37,30.54,14.49,50.74,1020.52,2024.99,1562.60,1694.94,1922.64,600.05,594.53,21.42,0000 0000 0000 0000 000000
2017-03-22 05:50:29,0.08,7.51,0.00,24.91,27.37,30.53,14.38,50.71,1020.52,2024.99,1562.01,1694.40,1922.04,600.19,594.66,21.47,0000 0000 0000 0000 000000
2017-03-22 05:55:31,0.05,7.51,0.00,24.93,27.37,30.54,14.50,50.68,1020.51,2025.00,1561.59,1694.01,1921.88,600.23,594.57,21.52,0000 0000 0000 0000 000000
2017-03-22 06:00:32,0.06,7.52,0.00,24.91,27.37,30.54,14.48,50.78,1020.37,2025.00,1560.95,1693.89,1921.08,600.17,594.50,21.58,0000 0000 0000 0000 000000
2017-03-22 06:05:34,0.15,7.53,0.00,24.89,27.36,30.51,14.41,51.08,1020.05,2025.01,1560.07,1693.09,1920.42,599.76,593.96,21.63,0000 0000 0000 0000 000000
2017-03-22 06:10:35,0.17,7.53,0.00,24.78,27.35,30.51,14.43,51.23,1020.03,2025.01,1558.98,1692.45,1919.62,599.84,594.47,21.68,0000 0000 0000 0000 000000
2017-03-22 06:15:36,0.22,7.54,0.00,24.70,27.35,30.50,14.57,51.30,1019.84,2025.02,1557.33,1691.01,1917.93,600.48,594.89,21.73,0000 0000 0000 0000 000000
2017-03-22 06:20:38,0.11,7.55,0.00,24.80,27.34,30.53,14.54,51.29,1019.70,2025.05,1556.75,1690.34,1917.08,600.25,594.50,21.78,0000 0000 0000 0000 000000
2017-03-22 06:25:39,0.05,7.55,0.00,24.87,27.34,30.53,14.49,51.42,1019.56,2025.04,1556.02,1689.99,1916.78,600.15,594.18,21.83,0000 0000 0000 0000 000000
2017-03-22 06:30:40,0.13,7.56,0.00,24.70,27.33,30.52,14.47,51.19,1019.81,2025.05,1555.20,1689.36,1916.03,599.80,594.18,21.88,0000 0000 0000 0000 000000
2017-03-22 06:35:41,0.05,7.56,0.00,24.77,27.33,30.54,14.50,51.11,1020.03,2025.03,1554.82,1688.94,1915.43,599.95,594.35,21.93,0000 0000 0000 0000 000000
2017-03-22 06:40:42,0.18,7.57,0.00,24.64,27.33,30.56,14.44,51.12,1020.03,2025.03,1553.70,1688.07,1914.17,600.21,594.93,21.98,0000 0000 0000 0000 000000
2017-03-22 06:45:43,0.14,7.58,0.00,24.54,27.32,30.63,14.42,51.07,1020.03,2025.03,1552.69,1687.49,1913.52,599.75,594.69,22.03,0000 0000 0000 0000 000000
2017-03-22 06:50:45,0.08,7.58,0.00,24.50,27.32,30.67,14.50,51.13,1020.03,2025.02,1551.86,1686.84,1912.91,599.85,595.00,22.08,0000 0000 0000 0000 000000
2017-03-22 06:55:46,0.16,7.59,0.00,24.60,27.32,30.68,14.40,50.97,1020.03,2025.06,1550.67,1686.03,1912.08,599.73,594.70,22.13,0000 0000 0000 0000 000000
2017-03-22 07:00:47,0.12,7.60,0.00,24.79,27.32,30.61,14.49,51.14,1020.03,2025.06,1549.81,1685.52,1911.34,599.81,594.25,22.18,0000 0000 0000 0000 000000
2017-03-22 07:05:49,0.08,7.60,0.00,24.51,27.32,30.57,14.51,51.31,1020.03,2025.10,1549.00,1685.00,1910.66,600.28,595.17,22.23,0000 0000 0000 0000 000000
2017-03-22 07:10:50,0.13,7.61,0.00,24.58,27.32,30.60,14.43,51.07,1020.04,2025.06,1548.03,1684.43,1910.00,599.83,594.69,22.28,0000 0000 0000 0000 000000
2017-03-22 07:15:52,0.11,7.62,0.00,24.47,27.32,30.69,14.51,51.27,1020.04,2025.15,1547.03,1684.00,1909.22,599.98,595.17,22.33,0000 0000 0000 0000 000000
2017-03-22 07:20:53,0.11,7.62,0.00,24.42,27.32,30.73,14.50,50.97,1020.25,2025.16,1546.26,1683.41,1908.76,599.62,594.93,22.38,0000 0000 0000 0000 000000
2017-03-22 07:25:54,0.06,7.63,0.00,24.41,27.32,30.77,14.57,50.67,1020.49,2025.17,1545.79,1683.00,1908.04,600.05,595.56,22.43,0000 0000 0000 0000 000000
2017-03-22 07:30:55,0.11,7.63,0.00,24.41,27.32,30.75,14.52,50.61,1020.33,2025.11,1545.03,1682.51,1907.58,600.00,595.49,22.48,0000 0000 0000 0000 000000
2017-03-22 07:35:57,0.06,7.63,0.00,24.43,27.32,30.75,14.46,50.80,1020.04,2025.17,1544.53,1682.01,1907.01,599.57,594.85,22.53,0000 0000 0000 0000 000000
2017-03-22 07:40:58,0.10,7.64,0.00,24.75,27.32,30.70,14.43,50.78,1019.95,2025.10,1543.86,1681.58,1906.36,599.96,594.46,22.58,0000 0000 0000 0000 000000
2017-03-22 07:45:59,0.10,7.64,0.00,24.64,27.34,30.65,14.49,50.85,1020.04,2025.04,1543.03,1680.92,1905.36,600.12,594.84,22.63,0000 0000 0000 0000 000000
2017-03-22 07:51:00,0.11,7.65,0.00,24.51,27.35,30.63,14.49,50.71,1020.42,2025.02,1542.28,1680.12,1904.95,599.90,595.14,22.68,0000 0000 0000 0000 000000
2017-03-22 07:56:02,0.05,7.65,0.00,24.65,27.35,30.69,14.51,50.75,1020.52,2025.00,1541.82,1679.95,1904.16,599.82,594.80,22.73,0000 0000 0000 0000 000000
2017-03-22 08:01:03,0.11,7.66,0.00,24.72,27.37,30.70,14.49,50.73,1020.51,2025.01,1541.01,1679.20,1903.87,599.47,594.34,22.78,0000 0000 0000 0000 000000
2017-03-22 08:06:05,0.10,7.66,0.00,24.70,27.37,30.67,14.47,50.96,1020.52,2025.00,1540.11,1678.88,1903.06,599.84,594.82,22.83,0000 0000 0000 0000 000000
2017-03-22 08:11:06,0.13,7.67,0.00,24.58,27.37,30.64,14.54,51.10,1020.52,2025.01,1539.57,1678.12,1902.38,600.11,595.11,22.88,0000 0000 0000 0000 000000
2017-03-22 08:16:07,0.03,7.67,0.00,24.42,27.37,30.70,14.54,50.92,1020.53,2025.00,1538.84,1677.97,1901.97,600.37,595.82,22.93,0000 0000 0000 0000 000000
2017-03-22 08:21:08,0.13,7.68,0.00,24.36,27.35,30.78,14.46,51.08,1020.56,2025.00,1538.02,1677.24,1901.24,599.71,595.33,22.98,0000 0000 0000 0000 000000
2017-03-22 08:26:10,0.07,7.68,0.00,24.31,27.35,30.80,14.56,51.24,1020.53,2025.00,1537.13,1676.99,1900.82,600.13,595.58,23.03,0000 0000 0000 0000 000000
2017-03-22 08:31:11,0.14,7.69,0.00,24.26,27.33,30.80,14.51,51.27,1020.53,2025.02,1536.28,1676.38,1900.04,599.73,595.64,23.08,0000 0000 0000 0000 000000
2017-03-22 08:36:12,0.14,7.69,0.00,24.22,27.32,30.81,14.51,51.21,1020.54,2025.00,1535.42,1675.68,1899.36,600.13,596.00,23.13,0000 0000 0000 0000 000000
2017-03-22 08:41:14,0.11,7.70,0.00,24.20,27.32,30.80,14.55,51.13,1020.81,2025.02,1534.57,1674.99,1898.29,599.95,596.01,23.18,0000 0000 0000 0000 000000
2017-03-22 08:46:15,0.15,7.71,0.00,24.17,27.31,30.79,14.55,51.22,1020.67,2025.01,1533.49,1674.21,1897.52,600.05,596.12,23.23,0000 0000 0000 0000 000000
2017-03-22 08:51:16,0.14,7.72,0.00,24.47,27.31,30.78,14.54,51.38,1020.53,2025.02,1532.35,1673.50,1896.71,599.96,595.36,23.28,0000 0000 0000 0000 000000
2017-03-22 08:56:18,0.10,7.72,0.00,24.39,27.32,30.72,14.65,51.40,1020.54,2025.01,1531.61,1672.82,1895.84,600.43,595.95,23.33,0000 0000 0000 0000 000000
2017-03-22 09:01:18,0.11,7.73,0.00,24.42,27.32,30.74,14.51,51.18,1020.62,2025.00,1530.78,1672.04,1895.03,599.83,595.33,23.38,0000 0000 0000 0000 000000
2017-03-22 09:06:20,0.16,7.73,0.00,24.32,27.33,30.79,14.56,51.42,1020.58,2025.00,1529.75,1671.51,1894.23,600.15,595.83,23.43,0000 0000 0000 0000 000000
2017-03-22 09:11:21,0.12,7.74,0.00,24.17,27.33,30.87,14.57,51.40,1020.80,2025.01,1528.76,1670.81,1893.31,599.90,595.97,23.48,0000 0000 0000 0000 000000
2017-03-22 09:16:22,0.13,7.75,0.00,24.11,27.32,30.96,14.54,51.23,1021.01,2025.02,1527.85,1670.00,1892.31,599.96,596.43,23.53,0000 0000 0000 0000 000000
2017-03-22 09:21:24,0.13,7.76,0.00,24.07,27.32,30.95,14.54,50.96,1021.22,2025.03,1526.90,1669.14,1891.74,600.13,596.72,23.58,0000 0000 0000 0000 000000
2017-03-22 09:26:25,0.15,7.76,0.00,24.02,27.32,30.92,14.50,50.90,1021.46,2025.04,1525.83,1668.58,1890.95,599.76,596.55,23.63,0000 0000 0000 0000 000000
2017-03-22 09:31:26,0.12,7.77,0.00,24.01,27.30,30.85,14.60,51.02,1021.48,2025.15,1524.83,1668.00,1890.08,599.91,596.71,23.68,0000 0000 0000 0000 000000
2017-03-22 09:36:27,0.22,7.78,0.00,23.99,27.30,30.84,14.58,51.03,1021.49,2025.49,1523.68,1667.34,1889.31,600.21,597.14,23.73,0000 0000 0000 0000 000000
2017-03-22 09:41:29,0.17,7.79,0.00,23.98,27.29,30.83,14.58,51.18,1021.49,2025.59,1522.59,1666.66,1888.47,600.03,596.95,23.78,0000 0000 0000 0000 000000
2017-03-22 09:46:30,0.18,7.80,0.00,23.95,27.27,30.78,14.61,51.12,1021.50,2025.73,1521.20,1665.81,1887.51,600.26,597.27,23.83,0000 0000 0000 0000 000000
2017-03-22 09:51:31,0.16,7.81,0.00,23.97,27.27,30.82,14.58,51.05,1021.50,2025.62,1519.68,1664.93,1886.35,600.12,597.15,23.88,0000 0000 0000 0000 000000
2017-03-22 09:56:32,0.19,7.82,0.00,23.96,27.27,30.83,14.58,51.08,1021.50,2025.71,1518.50,1664.04,1885.37,599.89,596.76,23.93,0000 0000 0000 0000 000000
2017-03-22 10:01:34,0.18,7.83,0.00,23.87,27.27,30.85,14.55,51.08,1021.50,2025.71,1517.16,1663.14,1884.34,600.21,597.35,23.98,0000 0000 0000 0000 000000
2017-03-22 10:06:35,0.17,7.83,0.00,23.89,27.27,30.86,14.57,51.05,1021.50,2025.81,1515.88,1662.40,1883.29,600.20,597.14,24.03,0000 0000 0000 0000 000000
2017-03-22 10:11:37,0.16,7.84,0.00,23.91,27.27,30.89,14.55,50.90,1021.50,2025.68,1514.66,1661.57,1882.30,599.99,596.99,24.08,0000 0000 0000 0000 000000
2017-03-22 10:16:38,0.17,7.85,0.00,23.88,27.27,30.88,14.60,51.17,1021.51,2025.72,1513.51,1660.68,1881.30,600.08,597.13,24.13,0000 0000 0000 0000 000000
2017-03-22 10:21:39,0.15,7.86,0.00,23.82,27.28,30.92,14.63,51.25,1021.50,2025.73,1512.11,1659.87,1880.22,599.98,597.26,24.18,0000 0000 0000 0000 000000
2017-03-22 10:26:40,0.24,7.87,0.00,23.81,27.30,30.93,14.59,51.34,1021.50,2025.82,1510.66,1658.84,1879.07,599.77,597.15,24.23,0000 0000 0000 0000 000000
2017-03-22 10:31:41,0.15,7.88,0.00,23.82,27.30,30.98,14.58,51.24,1021.50,2025.64,1509.36,1657.82,1877.84,599.59,596.84,24.28,0000 0000 0000 0000 000000
2017-03-22 10:36:42,0.16,7.89,0.00,23.80,27.30,30.97,14.55,51.17,1021.50,2025.70,1508.14,1657.01,1876.91,599.53,596.84,24.33,0000 0000 0000 0000 000000
2017-03-22 10:41:43,0.16,7.90,0.00,23.76,27.31,30.98,14.57,51.30,1021.50,2025.69,1506.96,1656.18,1875.90,600.11,597.49,24.38,0000 0000 0000 0000 000000
2017-03-22 10:46:45,0.15,7.90,0.00,23.78,27.32,31.00,14.61,51.25,1021.50,2025.61,1505.88,1655.33,1874.90,599.86,597.18,24.43,0000 0000 0000 0000 000000
2017-03-22 10:51:46,0.16,7.91,0.00,23.78,27.32,31.03,14.59,51.38,1021.50,2025.30,1504.65,1654.33,1873.78,599.52,596.79,24.48,0000 0000 0000 0000 000000
2017-03-22 10:56:47,0.15,7.92,0.00,23.72,27.32,31.06,14.57,51.36,1021.50,2025.17,1503.55,1653.48,1872.80,599.82,597.29,24.53,0000 0000 0000 0000 000000
2017-03-22 11:01:49,0.16,7.93,0.00,23.70,27.34,31.04,14.57,51.33,1021.50,2025.13,1502.28,1652.63,1871.78,599.84,597.39,24.58,0000 0000 0000 0000 000000
2017-03-22 11:06:50,0.16,7.94,0.00,23.71,27.35,31.00,14.60,51.32,1021.50,2025.11,1501.03,1651.79,1870.71,599.95,597.40,24.63,0000 0000 0000 0000 000000
2017-03-22 11:11:52,0.16,7.94,0.00,23.66,27.35,31.03,14.64,51.22,1021.50,2025.05,1499.78,1650.87,1869.68,599.75,597.18,24.68,0000 0000 0000 0000 000000
2017-03-22 11:16:53,0.17,7.95,0.00,23.60,27.35,31.09,14.61,51.31,1021.50,2025.06,1498.60,1649.99,1868.64,600.10,597.98,24.73,0000 0000 0000 0000 000000
2017-03-22 11:21:54,0.17,7.96,0.00,23.61,27.35,31.06,14.57,51.23,1021.55,2025.03,1497.32,1649.08,1867.57,599.75,597.47,24.78,0000 0000 0000 0000 000000
2017-03-22 11:26:56,0.16,7.97,0.00,23.63,27.35,31.03,14.68,51.24,1021.62,2025.03,1496.04,1648.16,1866.51,600.37,597.90,24.84,0000 0000 0000 0000 000000
2017-03-22 11:31:57,0.20,7.98,0.00,23.58,27.35,31.09,14.65,51.25,1021.62,2025.03,1494.69,1647.30,1865.47,599.87,597.64,24.89,0000 0000 0000 0000 000000
2017-03-22 11:36:58,0.18,7.99,0.00,23.53,27.35,31.00,14.62,51.29,1021.64,2025.04,1493.39,1646.29,1864.39,600.05,597.92,24.94,0000 0000 0000 0000 000000
2017-03-22 11:41:59,0.18,8.00,0.00,23.56,27.35,31.00,14.66,51.27,1021.56,2025.07,1492.02,1645.40,1863.31,599.78,597.58,24.99,0000 0000 0000 0000 000000
2017-03-22 11:47:00,0.19,8.01,0.00,23.54,27.35,31.03,14.58,51.20,1021.52,2025.04,1490.68,1644.45,1862.11,600.10,597.95,25.04,0000 0000 0000 0000 000000
2017-03-22 11:52:02,0.18,8.02,0.00,23.48,27.35,31.02,14.58,51.23,1021.52,2025.06,1489.44,1643.53,1861.05,599.75,597.69,25.09,0000 0000 0000 0000 000000
2017-03-22 11:57:03,0.17,8.03,0.00,23.41,27.35,30.96,14.62,51.41,1021.56,2025.07,1488.08,1642.60,1859.99,599.51,597.68,25.14,0000 0000 0000 0000 000000
2017-03-22 12:02:04,0.20,8.04,0.00,23.46,27.33,30.95,14.64,51.33,1021.86,2025.09,1486.73,1641.67,1858.90,599.89,598.08,25.19,0000 0000 0000 0000 000000
2017-03-22 12:07:05,0.19,8.05,0.00,23.46,27.32,30.92,14.65,51.23,1021.98,2025.06,1485.39,1640.72,1857.73,599.85,598.09,25.24,0000 0000 0000 0000 000000
2017-03-22 12:12:06,0.17,8.06,0.00,23.39,27.32,30.93,14.61,51.23,1021.99,2025.12,1484.02,1639.92,1856.71,599.62,597.98,25.29,0000 0000 0000 0000 000000
2017-03-22 12:17:07,0.20,8.07,0.00,23.38,27.31,30.89,14.66,51.17,1021.99,2025.26,1482.68,1639.03,1855.75,599.88,598.31,25.34,0000 0000 0000 0000 000000
2017-03-22 12:22:08,0.16,8.08,0.00,23.40,27.30,30.86,14.61,51.15,1021.99,2025.20,1481.51,1638.10,1854.83,599.46,597.83,25.39,0000 0000 0000 0000 000000
2017-03-22 12:27:10,0.17,8.09,0.00,23.39,27.30,30.88,14.68,51.05,1021.99,2025.15,1480.27,1637.22,1853.80,600.17,598.54,25.44,0000 0000 0000 0000 000000
2017-03-22 12:32:11,0.22,8.10,0.00,23.34,27.29,30.84,14.66,50.99,1022.01,2025.28,1478.87,1636.25,1852.73,600.34,598.85,25.49,0000 0000 0000 0000 000000
2017-03-22 12:37:13,0.22,8.11,0.00,23.30,27.27,30.82,14.67,51.08,1022.17,2025.37,1477.55,1635.34,1851.63,599.89,598.59,25.54,0000 0000 0000 0000 000000
2017-03-22 12:42:15,0.16,8.11,0.00,23.32,27.27,30.85,14.57,50.94,1022.36,2025.34,1476.26,1634.45,1850.57,600.01,598.77,25.59,0000 0000 0000 0000 000000
2017-03-22 12:47:16,0.18,8.12,0.00,23.36,27.26,30.80,14.57,50.88,1022.48,2025.35,1474.90,1633.53,1849.52,599.54,598.34,25.64,0000 0000 0000 0000 000000
2017-03-22 12:52:17,0.20,8.13,0.00,23.34,27.25,30.82,14.69,50.95,1022.48,2025.55,1473.64,1632.74,1848.52,599.67,598.45,25.69,0000 0000 0000 0000 000000
2017-03-22 12:57:19,0.17,8.14,0.00,23.28,27.24,30.81,14.69,50.77,1022.49,2025.71,1472.42,1631.96,1847.59,599.76,598.63,25.74,0000 0000 0000 0000 000000